Chillicothe, MO

4:25 PM CST on November 14, 2019 (GMT -0600)
Chillicothe

Weather History for KCDJ - September, 2019

Change the Weather History Date:

Saturday, September 7, 2019

  Actual Average (KIRK) Record (KIRK)
Temperature  
Mean Temperature 70 °F -  
Max Temperature 80 °F 82 °F 100 °F (1939)
Min Temperature 60 °F 60 °F 35 °F (1956)
Cooling Degree Days 5    
Growing Degree Days 20 (Base 50)    
Moisture  
Dew Point 62 °F    
Average Humidity 77    
Maximum Humidity 100    
Minimum Humidity 56    
Precipitation  
Precipitation 0.00 in - - ()
Sea Level Pressure  
Sea Level Pressure 30.03 in    
Wind  
Wind Speed 2 mph (SE)    
Max Wind Speed 9 mph    
Max Gust Speed -    
Averages and records for this station are not official NWS values.
T = Trace of Precipitation, MM = Missing Value Source: NWS Daily Summary

Daily Weather History Graph

Daily Weather History Graph

Search for Another Location

Airport or City:

Astronomy

Sep. 07, 2019 Rise Set
Actual Time 6:47 AM CDT 7:36 PM CDT
Civil Twilight 6:20 AM CDT 8:03 PM CDT
Nautical Twilight 5:47 AM CDT 8:36 PM CDT
Astronomical Twilight 5:14 AM CDT 9:09 PM CDT
Moon 3:52 PM CDT (9/7) 12:40 AM CDT (9/7)
Length of Visible Light 13h 43m
Length of Day
12h 48m
Waxing Gibbous, 66% of the Moon is Illuminated
Sep 7
Waxing Gibbous
Sep 13
Full
Sep 21
Last Quarter
Sep 28
New
Oct 5
First Quarter

Hourly Weather History & Observations

Time (CDT) Temp. Heat Index Dew Point Humidity Pressure Visibility Wind Dir Wind Speed Gust Speed Precip Events Conditions
12:52 AM 63.0 °F - 61.0 °F 93% 30.08 in - Calm Calm - N/A   Unknown
1:52 AM 62.1 °F - 60.1 °F 93% 30.08 in - Calm Calm - N/A   Unknown
2:52 AM 60.1 °F - 60.1 °F 100% 30.09 in - Calm Calm - N/A   Unknown
3:52 AM 60.1 °F - 59.0 °F 96% 30.09 in - Calm Calm - N/A   Unknown
4:52 AM 60.1 °F - 60.1 °F 100% 30.09 in - Calm Calm - N/A   Unknown
5:52 AM 60.1 °F - 60.1 °F 100% 30.09 in - Calm Calm - N/A   Unknown
6:52 AM 61.0 °F - 60.1 °F 97% 30.09 in - Calm Calm - N/A   Unknown
7:52 AM 62.1 °F - 61.0 °F 96% 30.10 in - Calm Calm - N/A   Unknown
8:52 AM 66.9 °F - 62.1 °F 84% 30.10 in - ESE 3.5 mph - N/A   Unknown
9:52 AM 71.1 °F - 63.0 °F 75% 30.09 in - Variable 3.5 mph - N/A   Unknown
10:52 AM 73.9 °F - 63.0 °F 68% 30.07 in - Variable 4.6 mph - N/A   Unknown
11:52 AM 75.0 °F - 61.0 °F 62% 30.05 in - South 8.1 mph - N/A   Unknown
12:52 PM 78.1 °F - 64.0 °F 62% 30.04 in - South 8.1 mph - N/A   Unknown
1:52 PM 79.0 °F - 64.0 °F 60% 30.01 in - SE 5.8 mph - N/A   Unknown
2:52 PM 79.0 °F - 63.0 °F 58% 29.99 in - East 6.9 mph - N/A   Unknown
3:52 PM 80.1 °F 81.7 °F 64.0 °F 58% 29.97 in - Variable 6.9 mph - N/A   Unknown
4:52 PM 79.0 °F - 62.1 °F 56% 29.97 in - ESE 6.9 mph - N/A   Unknown
5:52 PM 79.0 °F - 64.0 °F 60% 29.97 in - East 3.5 mph - N/A   Unknown
6:52 PM 75.9 °F - 64.9 °F 69% 29.96 in - Variable 3.5 mph - N/A   Unknown
7:52 PM 73.0 °F - 63.0 °F 71% 29.95 in - ESE 5.8 mph - N/A   Unknown
8:52 PM 72.0 °F - 63.0 °F 73% 29.96 in - ESE 3.5 mph - N/A   Unknown
9:52 PM 71.1 °F - 63.0 °F 75% 29.93 in - ESE 6.9 mph - N/A   Unknown
10:52 PM 71.1 °F - 62.1 °F 73% 29.94 in - Variable 4.6 mph - N/A   Unknown
11:52 PM 71.1 °F - 62.1 °F 73% 29.92 in - ESE 9.2 mph - N/A   Unknown